TimeCDT,TemperatureF,Dew PointF,Humidity,Sea Level PressureIn,VisibilityMPH,Wind Direction,Wind SpeedMPH,Gust SpeedMPH,PrecipitationIn,Events,Conditions,WindDirDegrees,DateUTC
12:15 AM,50.0,34.7,56,29.94,10.0,South,23.0,31.1,N/A,,Clear,180,2013-04-26 05:15:00
12:34 AM,49.3,34.9,58,29.94,10.0,South,18.4,26.5,N/A,,Clear,180,2013-04-26 05:34:00
12:55 AM,48.2,35.2,61,29.94,10.0,South,18.4,27.6,N/A,,Clear,180,2013-04-26 05:55:00
1:15 AM,44.8,35.2,69,29.95,10.0,South,16.1,24.2,N/A,,Clear,190,2013-04-26 06:15:00
1:34 AM,46.2,35.2,66,29.95,10.0,South,19.6,26.5,N/A,,Clear,190,2013-04-26 06:34:00
2:15 AM,45.5,35.6,68,29.95,10.0,SSW,18.4,23.0,N/A,,Clear,200,2013-04-26 07:15:00
2:35 AM,45.5,36.0,69,29.94,10.0,South,19.6,-,N/A,,Clear,190,2013-04-26 07:35:00
2:55 AM,43.9,35.8,73,29.93,10.0,SSW,19.6,-,N/A,,Clear,200,2013-04-26 07:55:00
3:15 AM,43.7,36.0,74,29.93,10.0,SSW,18.4,-,N/A,,Clear,200,2013-04-26 08:15:00
3:35 AM,43.9,35.6,73,29.94,10.0,SSW,19.6,25.3,N/A,,Clear,210,2013-04-26 08:35:00
3:55 AM,44.1,35.1,71,29.94,10.0,SSW,18.4,24.2,N/A,,Clear,210,2013-04-26 08:55:00
4:15 AM,44.4,34.7,69,29.94,10.0,SSW,17.3,-,N/A,,Clear,210,2013-04-26 09:15:00
4:35 AM,41.9,34.7,76,29.95,10.0,SSW,16.1,-,N/A,,Clear,210,2013-04-26 09:35:00
4:55 AM,41.2,34.9,78,29.95,10.0,SSW,18.4,-,N/A,,Clear,210,2013-04-26 09:55:00
5:15 AM,41.5,34.7,77,29.95,10.0,SSW,18.4,-,N/A,,Clear,210,2013-04-26 10:15:00
5:35 AM,40.8,34.7,79,29.95,10.0,SSW,18.4,-,N/A,,Clear,210,2013-04-26 10:35:00
5:55 AM,40.3,34.5,80,29.95,10.0,SSW,16.1,-,N/A,,Clear,210,2013-04-26 10:55:00
6:14 AM,40.5,34.7,80,29.95,10.0,SSW,16.1,-,N/A,,Clear,210,2013-04-26 11:14:00
6:55 AM,40.3,34.7,80,29.96,10.0,SSW,15.0,-,N/A,,Clear,210,2013-04-26 11:55:00
7:14 AM,41.0,35.1,79,29.96,10.0,SSW,15.0,-,N/A,,Clear,210,2013-04-26 12:14:00
7:35 AM,42.3,35.4,77,29.97,10.0,SW,18.4,-,N/A,,Clear,220,2013-04-26 12:35:00
7:55 AM,42.8,36.0,77,29.98,10.0,SW,17.3,-,N/A,,Clear,220,2013-04-26 12:55:00
8:14 AM,43.9,36.1,74,29.98,10.0,SW,18.4,-,N/A,,Clear,220,2013-04-26 13:14:00
8:35 AM,45.3,37.0,73,29.99,10.0,SW,17.3,-,N/A,,Clear,230,2013-04-26 13:35:00
8:55 AM,46.0,37.4,72,30.00,10.0,WSW,16.1,-,N/A,,Clear,240,2013-04-26 13:55:00
9:14 AM,47.3,37.8,69,30.00,10.0,WSW,12.7,-,N/A,,Clear,240,2013-04-26 14:14:00
9:35 AM,48.9,37.2,64,30.01,10.0,WSW,11.5,-,N/A,,Clear,250,2013-04-26 14:35:00
9:55 AM,49.8,38.1,64,30.02,10.0,WSW,10.4,-,N/A,,Clear,250,2013-04-26 14:55:00
10:14 AM,50.9,39.0,64,30.03,10.0,WSW,10.4,-,N/A,,Clear,250,2013-04-26 15:14:00
10:35 AM,52.0,39.7,63,30.04,10.0,WSW,10.4,-,N/A,,Clear,250,2013-04-26 15:35:00
10:55 AM,55.2,37.6,52,30.05,10.0,West,12.7,18.4,N/A,,Clear,280,2013-04-26 15:55:00
11:15 AM,55.8,39.0,53,30.07,10.0,WNW,15.0,-,N/A,,Clear,290,2013-04-26 16:15:00
11:35 AM,55.4,39.0,54,30.08,10.0,WNW,11.5,-,N/A,,Clear,300,2013-04-26 16:35:00
11:55 AM,55.8,39.6,55,30.09,10.0,NW,10.4,-,N/A,,Clear,310,2013-04-26 16:55:00
12:15 PM,56.3,38.8,52,30.09,10.0,NNW,8.1,-,N/A,,Clear,330,2013-04-26 17:15:00
12:35 PM,56.8,39.2,52,30.10,10.0,NNW,9.2,-,N/A,,Clear,330,2013-04-26 17:35:00
12:55 PM,56.8,39.7,53,30.10,10.0,NW,9.2,-,N/A,,Clear,310,2013-04-26 17:55:00
1:15 PM,57.4,40.8,54,30.10,10.0,NW,8.1,-,N/A,,Clear,320,2013-04-26 18:15:00
1:35 PM,57.7,40.5,53,30.10,10.0,NW,5.8,-,N/A,,Clear,310,2013-04-26 18:35:00
1:55 PM,58.5,41.0,52,30.10,10.0,WNW,5.8,-,N/A,,Clear,300,2013-04-26 18:55:00
2:15 PM,59.0,41.7,53,30.10,10.0,NW,6.9,-,N/A,,Clear,310,2013-04-26 19:15:00
2:35 PM,59.7,41.7,51,30.10,10.0,NW,5.8,-,N/A,,Clear,310,2013-04-26 19:35:00
2:55 PM,60.8,42.1,50,30.11,10.0,NW,6.9,-,N/A,,Clear,310,2013-04-26 19:55:00
3:15 PM,61.5,42.4,50,30.11,10.0,WNW,11.5,-,N/A,,Clear,300,2013-04-26 20:15:00
3:36 PM,62.1,40.6,45,30.11,10.0,WNW,13.8,-,N/A,,Clear,300,2013-04-26 20:36:00
3:55 PM,62.4,40.1,44,30.11,10.0,NW,10.4,-,N/A,,Clear,320,2013-04-26 20:55:00
4:15 PM,62.8,39.9,43,30.11,10.0,NNW,10.4,-,N/A,,Clear,330,2013-04-26 21:15:00
4:35 PM,62.8,40.1,43,30.12,10.0,NW,10.4,-,N/A,,Clear,310,2013-04-26 21:35:00
4:55 PM,62.6,40.1,44,30.12,10.0,NW,10.4,-,N/A,,Clear,320,2013-04-26 21:55:00
5:15 PM,63.0,38.5,40,30.12,10.0,NW,10.4,-,N/A,,Clear,310,2013-04-26 22:15:00
5:35 PM,63.0,39.6,42,30.13,10.0,WNW,11.5,-,N/A,,Clear,300,2013-04-26 22:35:00
5:55 PM,62.6,39.0,42,30.13,10.0,WNW,11.5,-,N/A,,Clear,300,2013-04-26 22:55:00
6:15 PM,62.1,40.5,45,30.13,10.0,WNW,9.2,-,N/A,,Clear,300,2013-04-26 23:15:00
6:35 PM,61.7,41.7,48,30.14,10.0,WNW,10.4,-,N/A,,Clear,300,2013-04-26 23:35:00
6:55 PM,61.0,42.6,51,30.14,10.0,WNW,8.1,-,N/A,,Clear,290,2013-04-26 23:55:00
7:15 PM,59.9,43.5,55,30.14,10.0,WNW,8.1,-,N/A,,Clear,290,2013-04-27 00:15:00
7:35 PM,58.5,43.3,57,30.15,10.0,WNW,8.1,-,N/A,,Clear,290,2013-04-27 00:35:00
7:55 PM,56.8,42.8,59,30.15,10.0,West,5.8,-,N/A,,Clear,280,2013-04-27 00:55:00
8:15 PM,55.0,43.0,64,30.15,10.0,West,3.5,-,N/A,,Clear,270,2013-04-27 01:15:00
8:35 PM,51.6,43.3,73,30.16,10.0,West,4.6,-,N/A,,Clear,280,2013-04-27 01:35:00
8:54 PM,50.4,41.9,73,30.16,10.0,West,3.5,-,N/A,,Clear,270,2013-04-27 01:54:00
9:15 PM,49.5,41.0,73,30.17,10.0,West,5.8,-,N/A,,Clear,270,2013-04-27 02:15:00
9:35 PM,48.6,40.1,73,30.17,10.0,West,5.8,-,N/A,,Clear,270,2013-04-27 02:35:00
9:54 PM,47.7,39.4,73,30.17,10.0,West,5.8,-,N/A,,Clear,280,2013-04-27 02:54:00
10:15 PM,47.3,38.3,71,30.18,10.0,West,5.8,-,N/A,,Clear,280,2013-04-27 03:15:00
10:35 PM,45.5,37.4,73,30.18,10.0,West,4.6,-,N/A,,Clear,270,2013-04-27 03:35:00
10:54 PM,44.2,37.0,76,30.18,10.0,West,4.6,-,N/A,,Clear,270,2013-04-27 03:54:00
11:16 PM,43.2,36.3,77,30.18,10.0,West,4.6,-,N/A,,Clear,280,2013-04-27 04:16:00
11:35 PM,43.3,35.8,75,30.17,10.0,West,4.6,-,N/A,,Clear,280,2013-04-27 04:35:00
11:54 PM,42.1,35.6,78,30.17,10.0,West,4.6,-,N/A,,Clear,280,2013-04-27 04:54:00